Regional Weather Roundup
Issued by NWS Charleston, SC

Current Version | Previous Version | Graphics & Text | Print | Product List | Glossary On
Versions: 1 2 3 4 5 6 7 8 9 10 11 12 13 14 15 16 17 18 19 20 21 22 23 24 25 26 27 28 29 30 31 32 33 34 35 36 37 38 39 40 41 42 43 44 45 46 47 48 49 50
000
ASUS42 KCHS 222013
RWRCHS

Regional Weather Roundup
National Weather Service Charleston SC
300 PM EST MON JAN 22 2018

NOTE: "fair" indicates few or no clouds below 12,000 feet with no
significant weather and/or obstructions to visibility.

Not all stations are quality controlled. Use data with caution,
especially dewpoint observations.

SCZ027-030-031-034>040-042>050-222100-
...Southeast South Carolina...

CITY           SKY/WX    TMP DP  RH WIND       PRES   REMARKS
N Charleston   PTSUNNY   71  60  68 SE7       30.09F
Waterfront Prk NOT AVBL
Mount Pleasant FAIR      70  63  78 CALM      30.10F
Johns Island     N/A     68  61  77 E5        30.10F
Pinopolis        N/A     55  50  82 CALM      30.01F
Moncks Corner  FAIR      70  57  64 S7        30.09F
Summerville    MOCLDY    70  59  68 S3        30.09F
Beaufort MCAS  PTSUNNY   67  60  78 SE5       30.09F
Beaufort Arpt  MOCLDY    68  61  77 S5        30.09F HAZE
Hilton Head Is MOSUNNY   64  59  82 SE3       30.10F
Walterboro     CLOUDY    70  61  73 S9        30.08F
Allendale      MOCLDY    72  59  64 SE8G15    30.04F

...Southern Midlands and Pee Dee...

CITY           SKY/WX    TMP DP  RH WIND       PRES   REMARKS
Georgetown     MOCLDY    63  61  94 CALM      30.13S
Kingstree      FAIR      66  54  63 SE3       30.10F
Orangeburg     FAIR      70  55  59 SE9       30.05F
Barnwell         N/A     72  61  68 S6G14     30.05F
Aiken          CLOUDY    68  55  64 S10       30.08F
Manning        MOCLDY    68   7   9 MISG      30.08F
Columbia       PTSUNNY   68  48  48 E7        30.05F
Sumter         PTSUNNY   67  46  46 SE7       30.05F
Florence       CLOUDY    64  49  57 E3        30.11F
Myrtle Beach   CLOUDY    58  56  93 E3        30.13F
N Myrtle Beach CLOUDY    58  57  97 NE5       30.12F FOG

$$

GAZ063-065-086>088-099>101-113>116-118-119-134>141-150-222100-
...Southeast Georgia...

CITY           SKY/WX    TMP DP  RH WIND       PRES   REMARKS
Savannah Arpt  PTSUNNY   75  61  61 S20       30.06F
Hunter AAF     FAIR      73  61  68 S10       30.04F
Fort Stewart   PTSUNNY   74  60  60 SE12      30.02F
Statesboro     NOT AVBL
Sylvania       NOT AVBL
Claxton        NOT AVBL

...CSRA, Central and far Southeast Georgia...

CITY           SKY/WX    TMP DP  RH WIND       PRES   REMARKS
Thomson        NOT AVBL
Augusta-Bush   PTSUNNY   71  57  61 SE7       30.02F
Augusta-Daniel PTSUNNY   70  56  61 E8        30.03F
Swainsboro     NOT AVBL
Vidalia        NOT AVBL
Eastman        NOT AVBL
Hazlehurst     NOT AVBL
Alma           FAIR      76  58  53 S10       30.02F
Waycross       NOT AVBL
Jesup          NOT AVBL
Baxley         NOT AVBL
Brunswick      NOT AVBL
Saint Simons   FAIR      69  62  78 SE8       30.06F

$$

SCZ027-028-034-036>038-045-046-048>050-GAZ119-141-222100-
...Lake and Supplemental Coastal Observations...

STATION/POSITION TIME  TEMP    WIND        PRES    WAVE   SWELL
                       AIR SEA DIR/SP/G            HT/PER HT/PER/DIR
                 (UTC) (F)     (DEG/KT/KT) (MB)    (FT/S) (FT/S/D)
Winyah Bay       1845   58      90/  5     1021.0
Lake Murray      1920   63      90/  2/  5 1017.6F
ACE Basin NERRS  1845   68     170/  1     1020.0
Fort Pulaski     1936   52 47  100/  5/  5 1019.2F
Sapelo Island    1900   73     160/  7     1019.0

$$

ANZ835-935-AMZ111-154-330-350-352-354-370-450-454-472-222100-
...C-MAN and Buoy Observations...

STATION/POSITION TIME  TEMP    WIND        PRES    WAVE   SWELL
                       AIR SEA DIR/SP/G            HT/PER HT/PER/DIR
                 (UTC) (F)     (DEG/KT/KT) (MB)    (FT/S) (FT/S/D)
Buoy 41004       1950   71 70  170/ 12/ 14 1019.2F   2/ 5   2/160/ 5
Buoy 41008       1950   62 53  100/  6/  6 1018.6F   2/ 5   2/120/ 5
Folly Beach CMAN 2000   54      60/  6/  8 1019.8F
Capers Nearshore 1908   51 51   70/  6/  8 1019.4F
Fripp Nearshore  1908   51 49   70/  4/  6 1018.9F


STATION/POSITION TIME  TEMP    WIND        PRES    WAVE   SWELL
                       AIR SEA DIR/SP/G            HT/PER HT/PER/DIR
                 (UTC) (F)     (DEG/KT/KT) (MB)    (FT/S) (FT/S/D)
5E St. Marys GA  1930      53                N/A     2/ 5
Frying Pan Buoy  1950   69 66  180/ 14/ 17 1020.0F   2/10   2/120/10
Buoy 41025       1950   66 73  150/  4/  6 1021.5F   1/10   2/120/10
Cape Lookout NC  1900           60/  5/  5 1021.7F
Buoy 41002       1950   69 70  120/  8/ 10 1022.0S   2/10   2/ 80/10
Buoy 41010       NOT AVBL
St Augustine FL  2000   61 53  150/  7/  9 1017.9F


$$




USA.gov is the U.S. government's official web portal to all federal, state and local government web resources and services.